Precipitable_Water
1.01 1.17 1.10 1.22 1.33 1.39 1.55 1.46 1.62 1.61 1.65 1.68 1.75 1.73 1.82 2.01 2.06 2.14 2.14 2.02 2.07 2.29 2.09 2.00 2.13 2.24 2.28 2.27 2.26 2.17 2.11 2.07 2.02
0.74 1.13 1.17 1.27 1.38 1.42 1.49 1.52 1.55 1.56 1.55 1.62 1.70 1.77 1.98 2.00 2.01 2.06 2.08 1.89 2.25 2.05 2.06 1.97 2.13 2.29 2.26 2.25 2.27 2.23 2.18 2.06 1.96
0.77 1.10 1.23 1.32 1.42 1.45 1.48 1.52 1.59 1.64 1.61 1.61 1.71 1.82 1.90 1.89 1.94 2.03 2.15 2.13 1.87 1.89 1.96 1.93 2.05 2.06 2.11 2.25 2.23 2.25 2.17 2.08 2.09
0.68 1.08 1.19 1.29 1.40 1.49 1.46 1.51 1.61 1.62 1.63 1.66 1.75 1.78 1.89 1.84 1.92 1.96 2.12 1.93 1.85 1.72 1.92 2.02 1.84 1.74 1.92 2.09 2.14 2.20 2.13 2.13 2.10
0.84 1.07 1.19 1.29 1.34 1.45 1.37 1.46 1.55 1.58 1.62 1.71 1.70 1.84 1.84 1.91 1.95 1.95 2.03 1.92 1.64 1.69 1.70 1.91 1.93 1.84 1.67 2.02 2.01 2.15 2.07 2.07 2.09
0.88 0.99 1.18 1.27 1.29 1.26 1.30 1.41 1.51 1.57 1.62 1.71 1.77 1.82 1.99 1.83 1.97 1.90 1.86 1.52 1.62 1.41 1.25 1.44 1.74 1.61 1.63 1.83 1.86 2.01 2.08 2.03 2.01
0.91 1.00 1.14 1.23 1.26 1.22 1.25 1.40 1.48 1.55 1.57 1.77 1.71 1.80 1.80 1.90 1.89 1.71 1.63 1.48 1.37 1.31 1.33 1.32 1.31 1.35 1.31 1.31 1.41 1.43 1.65 1.76 1.91
0.91 0.97 1.12 1.22 1.25 1.25 1.30 1.34 1.43 1.49 1.48 1.65 1.63 1.66 1.89 1.60 1.56 1.60 1.51 1.45 1.44 1.43 1.36 1.42 1.44 1.40 1.38 1.33 1.24 1.23 1.26 1.21 1.18
0.79 0.99 1.13 1.24 1.27 1.29 1.30 1.32 1.40 1.50 1.54 1.67 1.69 2.00 1.56 1.48 1.68 1.55 1.51 1.50 1.51 1.46 1.43 1.40 1.38 1.38 1.34 1.31 1.21 1.18 1.07 1.04 1.08
0.80 0.97 1.12 1.24 1.27 1.35 1.43 1.46 1.54 1.61 1.74 1.76 1.70 1.69 1.73 1.75 1.68 1.62 1.56 1.54 1.54 1.48 1.42 1.38 1.33 1.35 1.38 1.28 1.16 1.07 0.95 0.89 1.06
0.84 0.98 1.09 1.28 1.34 1.42 1.55 1.65 1.63 1.72 1.78 1.73 1.61 1.62 1.71 1.77 1.63 1.58 1.54 1.56 1.50 1.50 1.49 1.43 1.34 1.31 1.36 1.29 1.07 0.98 0.92 0.90 0.96
0.89 1.04 1.14 1.34 1.44 1.50 1.62 1.70 1.74 1.76 1.75 1.77 1.62 1.74 1.74 1.73 1.73 1.64 1.61 1.55 1.59 1.59 1.61 1.52 1.46 1.45 1.36 1.34 1.14 1.01 0.93 0.92 1.02
1.02 1.15 1.25 1.33 1.49 1.52 1.62 1.74 1.85 1.79 1.75 1.78 1.65 1.72 1.81 1.95 1.99 1.84 1.65 1.73 1.73 1.69 1.65 1.67 1.66 1.59 1.48 1.34 1.20 1.09 1.00 0.91 0.93
1.16 1.25 1.26 1.36 1.43 1.53 1.66 1.77 1.83 1.81 1.85 1.81 1.85 1.87 1.93 1.89 1.87 1.82 1.79 1.82 1.84 1.74 1.70 1.71 1.68 1.60 1.51 1.45 1.28 1.17 0.98 0.87 0.86
1.02 1.12 1.31 1.38 1.43 1.62 1.77 1.82 1.83 1.83 1.86 1.90 1.88 1.85 1.79 1.78 1.83 1.86 1.87 1.80 1.73 1.72 1.71 1.71 1.66 1.57 1.47 1.50 1.34 1.11 0.94 0.86 0.83
1.12 1.20 1.25 1.34 1.48 1.56 1.64 1.72 1.77 1.69 1.73 1.79 1.72 1.72 1.74 1.76 1.78 1.74 1.72 1.66 1.63 1.61 1.66 1.66 1.67 1.65 1.58 1.52 1.25 1.12 0.99 0.88 0.84
1.21 1.28 1.30 1.42 1.44 1.45 1.45 1.56 1.61 1.64 1.64 1.68 1.70 1.68 1.69 1.70 1.65 1.62 1.57 1.58 1.61 1.59 1.59 1.60 1.51 1.40 1.45 1.43 1.24 1.02 1.07 1.06 1.05
1.34 1.37 1.39 1.46 1.51 1.51 1.52 1.56 1.53 1.59 1.64 1.66 1.66 1.64 1.63 1.60 1.54 1.51 1.51 1.56 1.55 1.54 1.53 1.55 1.46 1.35 1.36 1.27 1.06 1.11 1.15 1.02 0.99
1.41 1.45 1.50 1.48 1.47 1.51 1.52 1.53 1.56 1.63 1.74 1.72 1.65 1.60 1.55 1.48 1.49 1.52 1.54 1.53 1.42 1.46 1.48 1.32 1.34 1.39 1.39 1.25 1.21 1.11 1.01 0.86 0.81
1.40 1.49 1.59 1.51 1.56 1.57 1.62 1.63 1.63 1.67 1.72 1.69 1.62 1.55 1.52 1.51 1.51 1.51 1.50 1.50 1.44 1.34 1.36 1.31 1.28 1.26 1.22 1.12 1.03 0.96 0.88 0.87 0.86
Wind_Speed
5 6 5 5 6 8 7 7 7 7 9 10 11 12 11 11 11 10 10 10 9 9 7 5 5 5 7 8 10 12 13 12 11
7 7 7 6 6 8 8 8 7 7 10 11 11 10 10 10 9 9 9 8 7 8 8 5 4 4 6 7 9 10 11 11 12
7 7 6 6 7 8 10 10 9 9 11 12 12 11 10 10 9 8 6 6 3 4 7 7 4 4 3 7 7 8 10 10 10
8 7 6 5 6 7 10 11 10 10 10 11 11 11 11 9 9 8 6 5 4 3 3 5 5 4 5 6 7 8 8 9 9
3 4 4 5 5 6 9 11 11 11 10 11 11 11 11 10 9 7 5 5 3 3 1 3 4 3 5 5 6 6 7 7 8
4 4 4 5 4 6 9 11 10 10 10 11 11 10 11 10 8 8 6 5 3 1 2 2 3 2 2 3 4 5 6 7 8
5 5 5 6 5 6 9 10 11 11 11 11 11 11 10 9 9 8 7 6 4 3 2 2 2 1 1 1 2 3 4 5 6
6 7 7 7 6 7 8 10 11 11 12 11 11 11 10 9 9 9 8 6 6 4 3 2 2 2 2 2 2 3 5 5 6
6 7 9 9 7 7 9 10 11 11 12 11 12 12 11 10 8 9 8 8 8 7 6 5 5 5 4 3 4 5 6 7 8
9 8 11 12 10 10 9 10 11 12 11 11 12 11 10 9 10 9 9 9 10 10 10 9 9 8 8 7 7 7 7 8 8
11 10 11 13 13 12 12 11 12 13 12 12 12 12 11 11 11 11 10 12 13 12 14 14 13 12 12 10 10 10 10 10 10
10 11 11 13 14 13 13 13 13 14 14 13 14 14 14 14 13 13 12 14 14 16 16 16 17 16 15 14 13 12 11 11 11
8 9 10 12 14 15 15 15 15 14 14 15 15 16 17 15 16 16 15 15 17 18 19 20 20 20 19 17 16 14 14 13 13
10 10 12 12 14 15 15 16 16 16 16 17 18 16 16 16 17 17 17 18 18 19 20 22 22 21 21 21 18 17 16 15 14
12 12 12 13 13 14 15 16 16 16 17 16 17 16 16 16 17 17 17 17 19 20 21 20 22 22 22 22 20 19 17 15 15
12 13 12 14 15 15 15 15 16 17 18 17 17 17 17 17 16 16 16 17 17 17 19 21 23 25 25 23 21 18 18 16 15
14 14 15 15 16 16 16 16 17 18 18 18 17 16 16 17 16 16 15 14 13 13 14 15 16 17 20 22 21 18 17 16 16
16 17 17 17 17 18 18 18 18 18 17 17 17 17 17 17 16 15 14 13 12 12 11 11 11 12 14 17 17 16 16 18 18
18 19 19 20 21 21 20 20 19 19 18 19 18 18 18 17 16 16 15 15 13 12 11 10 11 12 14 15 17 17 17 17 18
20 20 21 23 23 22 21 20 20 21 20 19 19 19 18 18 18 18 18 17 17 16 15 14 12 11 12 13 15 17 18 19 20
Wind_Direction
253 263 264 271 269 258 236 233 219 223 204 191 188 191 205 215 218 219 221 230 242 229 252 261 254 248 227 216 207 205 207 212 213
281 243 254 263 268 254 234 216 216 209 194 194 194 204 209 214 219 222 228 251 241 256 250 252 249 247 221 207 203 204 206 209 213
271 241 243 261 270 247 228 219 212 205 201 203 207 213 209 218 218 213 217 214 260 276 240 240 242 239 228 208 203 205 207 212 215
307 219 250 265 272 235 218 213 203 202 204 205 212 212 212 210 216 215 213 233 253 284 255 233 225 241 224 217 212 209 210 216 218
309 232 241 260 268 215 209 206 205 204 205 203 205 206 207 206 209 212 227 237 249 264 261 221 210 222 227 220 218 220 215 219 221
289 240 240 246 235 213 207 203 204 203 207 202 203 201 201 201 209 220 229 220 203 154 140 100 157 180 178 204 218 228 223 227 231
265 247 235 234 227 214 205 202 201 201 206 206 201 200 203 213 221 217 208 194 196 187 163 155 158 150 155 188 221 222 219 226 228
265 247 227 227 225 214 206 206 207 208 208 208 205 204 208 215 212 193 196 206 209 216 221 221 232 235 242 256 263 258 256 253 257
271 246 227 224 218 210 206 208 208 208 210 206 207 209 208 208 201 203 212 220 230 234 240 246 249 253 257 266 277 281 273 263 265
269 245 234 224 219 217 213 211 209 207 209 204 203 209 207 207 210 218 227 236 241 244 247 249 252 255 258 265 276 281 278 272 267
255 249 240 227 228 226 223 217 214 211 213 214 215 215 217 221 227 232 240 253 249 253 253 254 255 257 259 264 272 272 275 274 267
261 246 239 231 231 227 224 222 222 220 221 222 222 227 232 234 242 251 261 256 255 258 260 256 257 256 257 259 266 267 270 269 269
258 250 243 233 234 228 227 228 227 227 228 230 233 237 238 241 243 258 266 265 262 266 262 259 258 255 254 257 260 264 267 268 267
255 249 245 244 237 229 229 231 232 233 234 239 242 242 248 253 257 266 267 273 272 271 268 263 261 254 251 251 257 259 263 264 264
253 250 248 243 234 230 235 238 238 238 242 247 252 254 252 253 259 263 271 272 275 277 270 264 261 252 251 252 251 252 256 261 264
253 252 249 243 237 237 241 240 239 243 248 252 253 251 249 253 260 267 271 276 279 281 273 265 262 258 251 248 242 247 249 257 265
254 255 250 244 240 239 240 242 245 247 249 249 248 249 248 253 260 266 267 272 279 285 285 272 265 262 241 238 230 239 247 257 268
255 254 249 250 245 241 245 247 246 247 245 243 244 248 251 253 256 256 260 265 272 280 285 282 276 253 232 224 231 243 255 268 274
260 254 252 246 248 247 245 244 243 244 244 244 248 250 251 251 253 255 257 258 266 276 278 277 270 253 241 240 246 254 263 269 275
262 262 254 249 244 241 241 242 244 243 243 245 246 249 249 251 253 254 255 256 259 265 267 267 268 260 255 255 255 260 267 273 278